Home > Weather > Portland > Past weeks

Flag for USA Past Weather in Portland, Maine, USA — Yesterday and Last 2 Weeks

Now
67 °F

Clear.


Feels Like: 67 °F
Forecast: 62 / 76 °F
Wind: 9 mph from North

Location: Portland - Portland International Jetport

Current Time: Aug 29, 2016 at 11:16:40 PM

Latest Report: Aug 29, 2016 at 9:51 PM


Visibility: 10 mi

Pressure: 30.12 "Hg

Humidity: 61%

Dew Point: 53 °F

Location of PortlandLocation

Past Weather in Portland — Graph

°F

Portland Temperature Yesterday

Maximum temperature yesterday: 78 °F (at 11:51 AM)
Minimum temperature yesterday: 60 °F (at 4:51 AM)
Average temperature yesterday: 69 °F

High & Low Weather Summary for the Past Weeks

 TemperatureHumidityPressure
High87 °F (Aug 26, 4:51 PM)97% (Aug 17, 1:59 AM)30.30 "Hg (Aug 17, 1:59 AM)
Low54 °F (Aug 23, 3:51 AM)31% (Aug 19, 2:51 PM)29.73 "Hg (Aug 22, 6:51 AM)
Average72 °F68%30.03 "Hg
* Reported Aug 14 9:51 PM — Aug 29 9:51 PM, Portland, Weather by CustomWeather, © 2016

Note: Actual official high and low records may vary slightly from our data, if they occured in-between our weather recording intervals... More about our weather records

Advertising

Portland Weather History for the Previous 24 Hours

Scroll right to see more
 ConditionsComfort  
Time TempWeatherWind HumidityBarometerVisibility
9:51 PM
Mon, Aug 29
67 °FClear.9 mph61%30.12 "Hg10 mi
8:51 PM69 °FClear.7 mph55%30.12 "Hg10 mi
7:51 PM71 °FSunny.9 mph51%30.11 "Hg10 mi
6:51 PM74 °FScattered clouds.16 mph46%30.10 "Hg10 mi
5:51 PM77 °FSunny.15 mph42%30.06 "Hg10 mi
4:51 PM79 °FScattered clouds.15 mph39%30.03 "Hg10 mi
3:51 PM80 °FScattered clouds.17 mph36%30.03 "Hg10 mi
2:51 PM81 °FScattered clouds.18 mph35%30.03 "Hg10 mi
1:51 PM83 °FScattered clouds.16 mph36%30.01 "Hg10 mi
12:51 PM84 °FPartly sunny.18 mph38%29.99 "Hg10 mi
11:51 AM84 °FPassing clouds.20 mph33%29.98 "Hg10 mi
10:51 AM83 °FBroken clouds.15 mph43%29.98 "Hg10 mi
9:51 AM81 °FPartly sunny.9 mph56%29.98 "Hg10 mi
8:51 AM77 °FPartly sunny.10 mph66%29.99 "Hg10 mi
7:51 AM72 °FPartly sunny.8 mph71%30.00 "Hg10 mi
6:51 AM69 °FPassing clouds.6 mph73%30.00 "Hg10 mi
5:51 AM69 °FPassing clouds.3 mph70%30.00 "Hg10 mi
4:51 AM69 °FPassing clouds.5 mph70%30.01 "Hg10 mi
3:51 AM69 °FPassing clouds.6 mph73%30.03 "Hg10 mi
2:51 AM68 °FOvercast.6 mph82%30.04 "Hg10 mi
1:51 AM68 °FMostly cloudy.7 mph84%30.06 "Hg10 mi
12:51 AM68 °FClear.12 mph84%30.07 "Hg10 mi
11:51 PM
Sun, Aug 28
67 °FClear.5 mph90%30.10 "Hg10 mi
Weather by CustomWeather, © 2016

See weather overviewHow to use our weather pages